Terminal Aerodrome Forecast
Issued by NWS Pocatello, ID

Home | Current Version | Previous Version | Text Only | Print | Product List | Glossary On
Versions: 1 2 3 4 5 6 7 8 9 10 11 12 13 14 15 16
356
FTUS45 KPIH 170533
TAFIDA
TAF
KIDA 170533Z 1706/1806 04003KT P6SM VCFG FEW002
     FM170900 VRB03KT 2SM BR SCT004
     FM171200 VRB03KT 1/2SM FZFG VV002
     FM171700 34006KT 6SM HZ SCT004
     FM180400 36004KT P6SM VCSH FEW002=

USA.gov is the U.S. government's official web portal to all federal, state and local government web resources and services.